Flag for Switzerland Weather past 2 weeks in Martigny, Valais, Switzerland

Now
34 °F

Overcast.


Feels Like: 27 °F
Forecast: 15 / 36 °F
Wind: 8 mph from West

Location: Sion

Current Time: Jan 25, 2015 at 5:50:44 AM

Latest Report: Jan 25, 2015 at 4:00 AM


Visibility: 9 mi

Pressure: 30.28 "Hg

Humidity: 72%

Dew point: 26 °F

Location of MartignyLocation

Historic Weather in Martigny — Graph

°F

Martigny temperature yesterday

Maximum temperature yesterday: 39 °F (at 4:00 PM)
Minimum temperature yesterday: 33 °F (at 5:00 AM)
Average temperature yesterday: 35 °F

Past Weeks' High & Low Weather Summary

 TemperatureHumidityPressure
High58 °F (Jan 10, 3:00 PM)100% (Jan 10, 5:00 AM)30.60 "Hg (Jan 10, 5:00 AM)
Low26 °F (Jan 22, 8:00 AM)38% (Jan 13, 4:00 PM)29.69 "Hg (Jan 16, 5:00 PM)
Average37 °F75%30.09 "Hg
* Reported Jan 10 3:00 AM — Jan 25 3:00 AM, Martigny, Weather by CustomWeather, © 2014

Note: Actual official high and low records may vary slightly from our data, if they occured in-between our weather recording intervals... More about our weather records

Advertising

Martigny weather history for previous 24 hours

 ConditionsComfort  
Time TempWeatherWind HumidityBarometerVisibility
3:00 AM
Jan 25
34 °FChilly.13 mph72%30.27 "HgN/A
2:00 AM34 °FChilly.10 mph71%30.25 "HgN/A
1:00 AM34 °FOvercast.12 mph74%30.25 "Hg9 mi
12:00 AM34 °FChilly.12 mph73%30.25 "HgN/A
11:00 PM
Jan 24
34 °FChilly.9 mph73%30.24 "HgN/A
10:00 PM34 °FOvercast.14 mph72%30.23 "Hg9 mi
9:00 PM35 °FChilly.12 mph74%30.21 "HgN/A
8:00 PM35 °FChilly.9 mph77%30.19 "HgN/A
7:00 PM35 °FOvercast.9 mph77%30.16 "Hg9 mi
6:00 PM36 °FChilly.14 mph72%30.13 "HgN/A
5:00 PM38 °FChilly.3 mph59%30.11 "HgN/A
4:00 PM39 °FOvercast.6 mph54%30.09 "Hg12 mi
3:00 PM39 °FChilly.5 mph53%30.11 "HgN/A
2:00 PM38 °FChilly.3 mph54%30.14 "HgN/A
1:00 PM37 °FOvercast.3 mph61%30.18 "Hg9 mi
12:00 PM36 °FChilly.2 mph68%30.22 "HgN/A
11:00 AM36 °FChilly.3 mph69%30.24 "HgN/A
10:00 AM34 °FOvercast.1 mph82%30.25 "Hg9 mi
9:00 AM33 °FChilly.No wind86%30.25 "HgN/A
8:00 AM33 °FChilly.1 mph85%30.24 "HgN/A
7:00 AM33 °FOvercast.1 mph84%30.23 "Hg9 mi
6:00 AM33 °FChilly.2 mph84%30.23 "HgN/A
5:00 AM33 °FChilly.1 mph87%30.24 "HgN/A
Weather by CustomWeather, © 2014

See weather overviewHow to use our weather pages